Malmstrom AFB, MT

8:15 PM MST on February 25, 2017 (GMT -0700)
Malmstrom AFB

Weather History for KGFA - January, 2014

Change the Weather History Date:

Wednesday, January 15, 2014

  Actual Average (KGTF) Record (KGTF)
Temperature  
Mean Temperature 40 °F -  
Max Temperature 51 °F 33 °F 60 °F (1973)
Min Temperature 30 °F 13 °F -30 °F (1950)
Degree Days  
Heating Degree Days 24    
Moisture  
Dew Point 21 °F    
Average Humidity 42    
Maximum Humidity 64    
Minimum Humidity 27    
Precipitation  
Precipitation 0.00 in - - ()
Sea Level Pressure  
Sea Level Pressure 30.20 in    
Wind  
Wind Speed 25 mph (SW)    
Max Wind Speed 36 mph    
Max Gust Speed 53 mph    
Visibility 10 miles    
Events      
Averages and records for this station are not official NWS values.
T = Trace of Precipitation, MM = Missing Value Source: NWS Daily Summary

Daily Weather History Graph

Daily Weather History Graph

Search for Another Location

Airport or City:

Trip Planner

Search our weather history database for the weather conditions in past years. The results will help you decide how hot, cold, wet, or windy it might be!

Date:

Astronomy

Jan. 15, 2014 Rise Set
Actual Time 8:07 AM MST 5:01 PM MST
Civil Twilight 7:33 AM MST 5:35 PM MST
Nautical Twilight 6:54 AM MST 6:13 PM MST
Astronomical Twilight 6:18 AM MST 6:50 PM MST
Moon 5:06 PM MST (1/15) 7:22 AM MST (1/15)
Length of Visible Light 10h 02m
Length of Day
8h 53m
Full, 100% of the Moon is Illuminated
Jan 15
Full
Jan 15
Full
Jan 23
Last Quarter
Jan 30
New
Feb 6
First Quarter

Hourly Weather History & Observations

Time (MST) Temp. Windchill Dew Point Humidity Pressure Visibility Wind Dir Wind Speed Gust Speed Precip Events Conditions
12:56 AM 41.0 °F 29.7 °F 24.1 °F 51% 30.17 in 10.0 mi SSW 31.1 mph 40.3 mph N/A   Clear
1:56 AM 41.0 °F 29.5 °F 24.1 °F 51% 30.14 in 10.0 mi SSW 32.2 mph 43.7 mph N/A   Clear
2:56 AM 42.1 °F 31.0 °F 25.0 °F 51% 30.12 in 10.0 mi SSW 32.2 mph 40.3 mph N/A   Clear
3:56 AM 42.1 °F 30.4 °F 24.1 °F 49% 30.11 in 10.0 mi SSW 35.7 mph 41.4 mph N/A   Clear
4:56 AM 44.1 °F 34.2 °F 21.9 °F 42% 30.12 in 10.0 mi SSW 28.8 mph 38.0 mph N/A   Clear
5:56 AM 46.0 °F 36.2 °F 19.0 °F 34% 30.09 in 10.0 mi SW 33.4 mph 52.9 mph N/A   Clear
6:56 AM 44.1 °F 34.4 °F 19.0 °F 37% 30.13 in 10.0 mi SW 27.6 mph 49.5 mph N/A   Clear
7:56 AM 44.1 °F 34.4 °F 19.0 °F 37% 30.11 in 10.0 mi SW 27.6 mph 41.4 mph N/A   Clear
8:56 AM 46.0 °F 37.0 °F 18.0 °F 33% 30.13 in 10.0 mi SW 27.6 mph 35.7 mph N/A   Clear
9:56 AM 46.9 °F - 19.0 °F 33% 30.16 in 10.0 mi SW 26.5 mph 38.0 mph N/A   Clear
10:56 AM 46.0 °F 38.3 °F 19.9 °F 35% 30.17 in 10.0 mi SW 20.7 mph 35.7 mph N/A   Clear
11:56 AM 46.9 °F - 19.9 °F 34% 30.16 in 10.0 mi SW 26.5 mph 34.5 mph N/A   Clear
12:56 PM 50.0 °F - 21.9 °F 33% 30.13 in 10.0 mi SW 27.6 mph 35.7 mph N/A   Clear
1:56 PM 51.1 °F - 24.1 °F 35% 30.15 in 10.0 mi SW 12.7 mph 20.7 mph N/A   Clear
2:56 PM 51.1 °F - 19.9 °F 29% 30.16 in 10.0 mi SW 21.9 mph 29.9 mph N/A   Clear
3:56 PM 51.1 °F - 18.0 °F 27% 30.18 in 10.0 mi WSW 19.6 mph 35.7 mph N/A   Clear
4:56 PM 48.0 °F - 19.0 °F 32% 30.19 in 10.0 mi WSW 20.7 mph 33.4 mph N/A   Clear
5:56 PM 46.0 °F 38.5 °F 19.9 °F 35% 30.22 in 10.0 mi WSW 19.6 mph 29.9 mph N/A   Clear
6:56 PM 44.1 °F 37.1 °F 21.0 °F 40% 30.27 in 10.0 mi WSW 15.0 mph - N/A   Clear
7:56 PM 43.0 °F 36.4 °F 21.9 °F 43% 30.29 in 10.0 mi WSW 12.7 mph - N/A   Clear
8:38 PM 39.2 °F 32.5 °F 24.8 °F 56% 30.21 in 10.0 mi NNW 10.4 mph - N/A   Clear
8:56 PM 37.0 °F 32.4 °F 24.1 °F 59% 30.37 in 10.0 mi North 5.8 mph - N/A   Clear
9:56 PM 35.1 °F 29.3 °F 19.9 °F 54% 30.41 in 10.0 mi North 6.9 mph - N/A   Clear
10:56 PM 30.9 °F 25.2 °F 19.9 °F 64% 30.45 in 10.0 mi ESE 5.8 mph - N/A   Clear
11:56 PM 34.0 °F - 18.0 °F 52% 30.46 in 10.0 mi Calm Calm - N/A   Clear